Regional Weather Roundup
Issued by NWS

Home | Current Version | Previous Version | Text Only | Print | Product List | Glossary Off
Versions: 1 2 3 4 5 6 7 8 9 10 11 12 13 14 15 16 17 18 19 20 21 22 23 24 25 26 27 28 29 30 31 32 33 34 35 36 37 38 39 40 41 42 43 44 45 46 47 48 49 50

000
ASUS43 KLOT 270804
RWRIL

ILLINOIS REGIONAL WEATHER ROUNDUP
NATIONAL WEATHER SERVICE CHICAGO/ROMEOVILLE IL
300 AM CDT SAT MAY 27 2017

NOTE: "FAIR" INDICATES FEW OR NO CLOUDS BELOW 12,000 FEET WITH NO
SIGNIFICANT WEATHER AND/OR OBSTRUCTIONS TO VISIBILITY.

* THESE STATIONS ARE NOT UNDER NWS QUALITY CONTROL. THEY ALSO MAY NOT
  REPORT WEATHER SUCH AS PRECIPITATION OR FOG.

ILZ001-002-007-009-015-016-024-270900-
NORTHWEST ILLINOIS

CITY           SKY/WX    TMP DP  RH WIND       PRES   REMARKS
MOLINE         CLOUDY    59  56  89 E8        29.86F FOG
STERLING*      FOG       54  54 100 CALM      29.88S VSB 3/4
SAVANNA*       CLEAR     52  52  99 CALM      29.88R FOG
$$

ILZ003-004-008-010-011-017-018-270900-
NORTH CENTRAL ILLINOIS

CITY           SKY/WX    TMP DP  RH WIND       PRES   REMARKS
ROCKFORD       PTCLDY    52  51  97 NE6       29.90S FOG
FREEPORT*      FOG       48  48  99 CALM      29.89F VSB 1/4
ROCHELLE*      PTCLDY    54  54  99 CALM      29.88S FOG
DE KALB*       CLEAR     52  52  99 N5        29.88S FOG
PERU*          CLOUDY    56  54  94 N5        29.87S FOG
$$

ILZ005-006-012>014-019>023-270900-
NORTHEAST ILLINOIS

CITY           SKY/WX    TMP DP  RH WIND       PRES   REMARKS
CHICAGO-OHARE  PTCLDY    54  51  90 N6        29.86S
CHICAGO-MIDWAY MOCLDY    57  54  89 NE5       29.85F
AURORA         CLOUDY    56  55  97 N5        29.87S FOG
LANSING*       CLOUDY    56  56 100 N5        29.86S
JOLIET*        CLEAR     58  56  96 CALM      29.86S FOG
WAUKEGAN       FOG       51  51 100 CALM      29.88S VSB 1
DUPAGE AIRPORT CLEAR     52  52 100 N6        29.86S FOG
KANKAKEE*      CLOUDY    58  57  97 CALM      29.85S FOG
WHEELING       CLEAR     50  50 100 N3        29.88S
MORRIS*        CLEAR     56  55  95 CALM      29.84F FOG
ROMEOVILLE*    CLEAR     55  55 100 NE6       29.86S FOG
$$

LMZ740>746-270900-
SOUTHERN LAKE MICHIGAN

STATION/POSITION SKY/WX   TEMP    WIND        PRES    VSBY  WAVE
                          AIR SEA DIR/SP/G                  HT/PER
                          (F)     (DEG/KT/KT) (MB)    (MI)  (FT/S)
SOUTHERN BUOY              48 46   30/  6/  8 1011.7          0
WILMETTE HARBOR            48 51                N/A           1/ 3
HARRISON CRIB              53      20/  8/  9   N/A
BURNHAM HARBOR             54      10/  7/  9   N/A
CALUMET HARBOR             53     340/  5/  8 1010.9S
BURNS HARBOR               55      60/  9/ 12 1011.5R
MICHIGAN CITY              55      50/  9/  9   N/A
MICHIGAN CITY 6N           54 53   50/  8/ 10   N/A           1/ 2
ST. JOSEPH                 56 58   60/  8/ 10 1011.4S         1
$$

ILZ025>027-034>036-040-047-049-050-058-095>099-270900-
WEST-CENTRAL ILLINOIS

CITY           SKY/WX    TMP DP  RH WIND       PRES   REMARKS
QUINCY         CLEAR     61  59  93 NE3       29.87R
GALESBURG*     FOG       58  58 100 NE7       29.86S VSB 3/4
MACOMB*        FOG       57  57  99 CALM      29.88S VSB 1/4
JACKSONVILLE*  CLEAR     60  60  99 CALM      29.86S FOG
PITTSFIELD*    CLEAR     63  62  96 CALM      29.88R
$$

ILZ028>032-037-038-041>044-048-051>054-059>061-270900-
CENTRAL ILLINOIS

CITY           SKY/WX    TMP DP  RH WIND       PRES   REMARKS
PONTIAC        CLOUDY    60  60  98 N3        29.86S FOG
BLOOMINGTON    LGT RAIN  61  61 100 N13       29.85S VSB 3/4
DECATUR        CLEAR     65  62  90 NW8       29.85R
PEORIA         FOG       59  59 100 N6        29.85F VSB 1/2
LINCOLN*       CLEAR     63  63 100 CALM      29.85R FOG
SPRINGFIELD    CLEAR     64  64 100 N5        29.85R FOG
TAYLORVILLE    CLEAR     65  65  98 NW5       29.85R
$$

ILZ033-039-045-046-055>057-062-063-270900-
EAST-CENTRAL ILLINOIS

CITY           SKY/WX    TMP DP  RH WIND       PRES   REMARKS
CHAMPAIGN      PTCLDY    63  61  93 N6        29.83S
RANTOUL*       CLOUDY    64  64  99 N8        29.83S FOG
MATTOON        CLEAR     67  67 100 W7        29.83R
PARIS*         MOCLDY    65  64  99 SW6       29.83S FOG
$$

ILZ079-100>102-270900-
SOUTHWEST ILLINOIS

CITY           SKY/WX    TMP DP  RH WIND       PRES   REMARKS
ALTON          MOCLDY    68  65  91 CALM      29.85F
BELLEVILLE     PTCLDY    68  66  93 CALM      29.85F
CAHOKIA*       CLOUDY    70  66  87 CALM      29.84F
SPARTA*        CLEAR     68  66  93 CALM      29.85F
$$

ILZ064>066-069>071-074>076-080>082-084>086-088>090-092>094-270900-
SOUTH-CENTRAL ILLINOIS

CITY           SKY/WX    TMP DP  RH WIND       PRES   REMARKS
CARBONDALE     CLOUDY    69  69 100 CALM      29.84F
CAIRO*         CLOUDY    69  69  99 CALM      29.85S
EFFINGHAM*     CLEAR     67  67 100 SW5       29.86R
MARION         PTCLDY    70  68  94 CALM      29.85F
MT. VERNON       N/A     67  66  97 CALM      29.84F
CENTRALIA*     PTCLDY    69  67  96 W6        29.83F
SALEM*         MOCLDY    70  66  89 W5        29.85R
$$

ILZ067-068-072-073-078-083-087-091-270900-
SOUTHEAST ILLINOIS

CITY           SKY/WX    TMP DP  RH WIND       PRES   REMARKS
LAWRENCEVILLE  PTCLDY    68  67  96 SW5       29.84R
FLORA*         PTCLDY    69  67  93 W7        29.84S
FAIRFIELD*     PTCLDY    69  68  96 CALM      29.83S
HARRISBURG*    MOCLDY    69  68  96 SW3       29.85F
ROBINSON*      PTCLDY    66  65  97 SW5       29.84R
CARMI*         CLOUDY    70  68  93 SW8       29.83F
$$

ABBREVIATIONS USED IN REMARKS
   TC - TEMPERATURE IN CELSIUS
  WCI - WIND CHILL INDEX
   HX - HEAT INDEX
  VSB - VISIBILITY
$$




USA.gov is the U.S. government's official web portal to all federal, state and local government web resources and services.